Delhi, Ontario

6:56 AM EST on February 25, 2017 (GMT -0500)
Delhi

Weather History for CXDI - August, 2013

Change the Weather History Date:

Tuesday, August 27, 2013

  Actual Average Record
Temperature  
Mean Temperature 75 °F -  
Max Temperature 86 °F - - ()
Min Temperature 64 °F - - ()
Cooling Degree Days 10    
Growing Degree Days 25 (Base 50)    
Moisture  
Dew Point 68 °F    
Average Humidity 84    
Maximum Humidity 95    
Minimum Humidity 52    
Precipitation  
Precipitation 0.03 in - - ()
Sea Level Pressure  
Sea Level Pressure 29.91 in    
Wind  
Wind Speed 3 mph ()    
Max Wind Speed 13 mph    
Max Gust Speed -    
T = Trace of Precipitation, MM = Missing Value Source: Averaged Metar Reports

Daily Weather History Graph

Daily Weather History Graph

Search for Another Location

Airport or City:

Trip Planner

Search our weather history database for the weather conditions in past years. The results will help you decide how hot, cold, wet, or windy it might be!

Date:

Astronomy

Aug. 27, 2013 Rise Set
Actual Time 6:41 AM EDT 8:04 PM EDT
Civil Twilight 6:12 AM EDT 8:34 PM EDT
Nautical Twilight 5:36 AM EDT 9:09 PM EDT
Astronomical Twilight 4:58 AM EDT 9:47 PM EDT
Moon 11:45 PM EDT (8/27) 1:49 PM EDT (8/27)
Length of Visible Light 14h 22m
Length of Day
13h 23m
Waning Gibbous, 57% of the Moon is Illuminated
Aug 27
Waning Gibbous
Aug 28
Last Quarter
Sep 5
New
Sep 12
First Quarter
Sep 19
Full

Hourly Weather History & Observations

Time (EDT) Temp. Heat Index Dew Point Humidity Pressure Visibility Wind Dir Wind Speed Gust Speed Precip Events Conditions
12:00 AM 69.1 °F - 67.1 °F 93% 29.94 in - WSW 3.5 mph - N/A   Unknown
1:00 AM 67.5 °F - 65.5 °F 93% 29.94 in - SW 2.3 mph - N/A   Unknown
2:00 AM 68 °F - 66 °F 92% 29.93 in - SSW 1.2 mph - -  
2:00 AM 68.0 °F - 66.2 °F 94% 29.93 in - SSW 1.2 mph - N/A   Unknown
3:00 AM 67.6 °F - 65.8 °F 94% 29.93 in - SSW 1.2 mph - N/A   Unknown
4:00 AM 66.0 °F - 64.2 °F 94% 29.92 in - South 1.2 mph - N/A   Unknown
5:00 AM 64.2 °F - 62.6 °F 94% 29.93 in - SW 2.3 mph - N/A   Unknown
6:00 AM 67.3 °F - 65.7 °F 95% 29.92 in - SW 2.3 mph - N/A   Unknown
7:00 AM 67.3 °F - 65.7 °F 95% 29.93 in - WSW 1.2 mph - N/A   Unknown
8:00 AM 69 °F - 67 °F 92% 29.93 in - Calm Calm - -  
8:00 AM 68.9 °F - 67.3 °F 95% 29.93 in - Calm Calm - N/A   Unknown
9:00 AM 70.5 °F - 67.6 °F 91% 29.93 in - NW 2.3 mph - N/A   Unknown
10:00 AM 75.4 °F - 69.1 °F 81% 29.93 in - West 3.5 mph - N/A   Unknown
11:00 AM 78.8 °F - 68.4 °F 70% 29.92 in - West 4.6 mph - N/A   Unknown
12:00 PM 80.8 °F 83.5 °F 67.8 °F 65% 29.91 in - WSW 5.8 mph - N/A   Unknown
1:00 PM 82.6 °F 86.4 °F 69.6 °F 65% 29.90 in - South 6.9 mph - N/A   Unknown
2:00 PM 84 °F - 69 °F 52% 29.88 in - SSW 13.4 mph - -  
2:00 PM 83.8 °F 87.5 °F 69.3 °F 61% 29.88 in - SSW 6.9 mph - N/A   Unknown
3:00 PM 82.2 °F 86.0 °F 70.0 °F 66% 29.86 in - SSW 6.9 mph - N/A   Unknown
4:00 PM 80.6 °F 84.2 °F 70.9 °F 72% 29.86 in - SW 4.6 mph - N/A   Unknown
5:00 PM 78.6 °F - 70.7 °F 77% 29.86 in - SSW 6.9 mph - N/A   Unknown
6:00 PM 77.0 °F - 71.4 °F 83% 29.87 in - SSW 3.5 mph - N/A   Unknown
7:00 PM 74.5 °F - 71.2 °F 90% 29.86 in - South 4.6 mph - N/A   Unknown
8:00 PM 74 °F - 72 °F 91% 29.90 in - Calm Calm - -  
8:00 PM 74.5 °F - 71.8 °F 91% 29.90 in - Calm Calm - 0.02 in   Unknown
9:00 PM 71.8 °F - 69.1 °F 91% 29.89 in - Calm Calm - 0.03 in   Unknown
10:00 PM 71.4 °F - 69.3 °F 93% 29.89 in - Calm Calm - N/A   Unknown
11:00 PM 71.2 °F - 69.1 °F 93% 29.88 in - Calm Calm - N/A   Unknown